Terminal Aerodrome Forecast
Issued by NWS Pocatello, ID

Home | Current Version | Previous Version | Text Only | Print | Product List | Glossary On
Versions: 1 2 3 4 5 6 7 8 9 10 11 12 13 14 15 16 17 18 19 20 21 22 23 24 25 26
000
FTUS45 KPIH 280500
TAFPIH
TAF
KPIH 280520Z 2806/2906 19009KT P6SM -SHRA SCT020 OVC050
     FM281000 21010KT 4SM -RA BR BKN007 OVC020
     FM281500 24008KT P6SM SCT007 OVC015
     FM290300 VRB05KT 6SM BR BKN007=

USA.gov is the U.S. government's official web portal to all federal, state and local government web resources and services.